This is the latest recevied weather packets stored in our database for station/object DB0ASF-4. If no packets are shown the sender has not sent any weather packets the latest 10 day(s).
| Time | Temp. | Humidity | Pressure | Rain* | Wind** | Luminosity | Snow |
|---|---|---|---|---|---|---|---|
| 1777745957 | 22.22° C | 35% | 1020.5 hPa | 0 mm | - | - | - |
| 1777745357 | 22.78° C | 34% | 1020.4 hPa | 0 mm | - | - | - |
| 1777744757 | 23.33° C | 33% | 1020.5 hPa | 0 mm | - | - | - |
| 1777744156 | 23.89° C | 32% | 1020.5 hPa | 0 mm | - | - | - |
| 1777743557 | 24.44° C | 31% | 1020.4 hPa | 0 mm | - | - | - |
| 1777742956 | 24.44° C | 30% | 1020.5 hPa | 0 mm | - | - | - |
| 1777742357 | 25° C | 30% | 1020.5 hPa | 0 mm | - | - | - |
| 1777741757 | 25° C | 30% | 1020.5 hPa | 0 mm | - | - | - |
| 1777741157 | 25.56° C | 29% | 1020.7 hPa | 0 mm | - | - | - |
| 1777740557 | 26.11° C | 29% | 1020.7 hPa | 0 mm | - | - | - |
| 1777739956 | 26.11° C | 28% | 1020.7 hPa | 0 mm | - | - | - |
| 1777739357 | 26.11° C | 28% | 1020.7 hPa | 0 mm | - | - | - |
| 1777738757 | 26.67° C | 28% | 1021 hPa | 0 mm | - | - | - |
| 1777738157 | 26.67° C | 28% | 1021.2 hPa | 0 mm | - | - | - |
| 1777737556 | 26.67° C | 28% | 1021.4 hPa | 0 mm | - | - | - |
| 1777736957 | 27.22° C | 27% | 1021.5 hPa | 0 mm | - | - | - |
| 1777736356 | 27.78° C | 27% | 1021.7 hPa | 0 mm | - | - | - |
| 1777735757 | 28.33° C | 28% | 1021.7 hPa | 0 mm | - | - | - |
| 1777735156 | 28.33° C | 27% | 1021.9 hPa | 0 mm | - | - | - |
| 1777734557 | 28.89° C | 26% | 1022 hPa | 0 mm | - | - | - |
| 1777733957 | 30° C | 25% | 1022.2 hPa | 0 mm | - | - | - |
| 1777733356 | 31.11° C | 24% | 1022.2 hPa | 0 mm | - | - | - |
| 1777732756 | 32.78° C | 22% | 1022.5 hPa | 0 mm | - | - | - |
| 1777732156 | 33.33° C | 21% | 1022.4 hPa | 0 mm | - | - | - |
| 1777731556 | 34.44° C | 20% | 1022.7 hPa | 0 mm | - | - | - |
* Rain latest hour (hover to see other rain measurements)
** Current wind speed in m/s (hover to see current wind gust speed)